Time,TemperatureF,DewpointF,PressureIn,WindDirection,WindDirectionDegrees,WindSpeedMPH,WindSpeedGustMPH,Humidity,HourlyPrecipIn,Conditions,Clouds,dailyrainin,SoftwareType,DateUTC
2013-07-13 00:12:00,68.0,-99.9,-100.00,ENE,59,0.0,3.0,-999,-99.99,,,-99.99,,2013-07-13 04:12:00,
2013-07-13 00:22:00,68.0,-99.9,-100.00,ENE,72,1.0,3.0,-999,-99.99,,,-99.99,,2013-07-13 04:22:00,
2013-07-13 00:32:00,68.0,-99.9,-100.00,ENE,72,1.0,3.0,-999,-99.99,,,-99.99,,2013-07-13 04:32:00,
2013-07-13 00:52:00,68.0,-99.9,-100.00,ENE,72,1.0,3.0,-999,-99.99,,,-99.99,,2013-07-13 04:52:00,
2013-07-13 01:02:00,68.0,-99.9,-100.00,ENE,72,1.0,3.0,-999,-99.99,,,-99.99,,2013-07-13 05:02:00,
2013-07-13 01:11:00,68.0,-99.9,-100.00,ENE,72,1.0,3.0,-999,-99.99,,,-99.99,,2013-07-13 05:11:00,
2013-07-13 01:22:00,66.0,-99.9,-100.00,East,85,2.0,3.0,-999,-99.99,,,-99.99,,2013-07-13 05:22:00,
2013-07-13 01:52:00,66.0,-99.9,-100.00,East,85,2.0,3.0,-999,-99.99,,,-99.99,,2013-07-13 05:52:00,
2013-07-13 02:02:00,66.0,-99.9,-100.00,East,85,2.0,3.0,-999,-99.99,,,-99.99,,2013-07-13 06:02:00,
2013-07-13 02:12:00,66.0,-99.9,-100.00,East,85,2.0,3.0,-999,-99.99,,,-99.99,,2013-07-13 06:12:00,
2013-07-13 02:22:00,65.0,-99.9,-100.00,North,-999,0.0,2.0,-999,-99.99,,,-99.99,,2013-07-13 06:22:00,
2013-07-13 02:33:00,65.0,-99.9,-100.00,North,-999,0.0,2.0,-999,-99.99,,,-99.99,,2013-07-13 06:33:00,
2013-07-13 02:43:00,65.0,-99.9,-100.00,North,-999,0.0,2.0,-999,-99.99,,,-99.99,,2013-07-13 06:43:00,
2013-07-13 02:52:00,65.0,-99.9,-100.00,North,-999,0.0,2.0,-999,-99.99,,,-99.99,,2013-07-13 06:52:00,
2013-07-13 03:02:00,65.0,-99.9,-100.00,North,-999,0.0,2.0,-999,-99.99,,,-99.99,,2013-07-13 07:02:00,
2013-07-13 03:12:00,65.0,-99.9,-100.00,North,-999,0.0,2.0,-999,-99.99,,,-99.99,,2013-07-13 07:12:00,
2013-07-13 03:33:00,65.0,-99.9,-100.00,East,100,0.0,2.0,-999,-99.99,,,-99.99,,2013-07-13 07:33:00,
2013-07-13 03:44:00,65.0,-99.9,-100.00,East,100,0.0,2.0,-999,-99.99,,,-99.99,,2013-07-13 07:44:00,
2013-07-13 03:53:00,65.0,-99.9,-100.00,East,100,0.0,2.0,-999,-99.99,,,-99.99,,2013-07-13 07:53:00,
2013-07-13 04:02:00,65.0,-99.9,-100.00,East,100,0.0,2.0,-999,-99.99,,,-99.99,,2013-07-13 08:02:00,
2013-07-13 04:22:00,65.0,-99.9,-100.00,ESE,121,1.0,3.0,-999,-99.99,,,-99.99,,2013-07-13 08:22:00,
2013-07-13 04:43:00,65.0,-99.9,-100.00,ESE,121,1.0,3.0,-999,-99.99,,,-99.99,,2013-07-13 08:43:00,
2013-07-13 04:52:00,65.0,-99.9,-100.00,ESE,121,1.0,3.0,-999,-99.99,,,-99.99,,2013-07-13 08:52:00,
2013-07-13 05:11:00,65.0,-99.9,-100.00,ESE,121,1.0,3.0,-999,-99.99,,,-99.99,,2013-07-13 09:11:00,
2013-07-13 05:22:00,65.0,-99.9,-100.00,ESE,121,1.0,3.0,-999,-99.99,,,-99.99,,2013-07-13 09:22:00,
2013-07-13 05:43:00,63.0,-99.9,-100.00,East,98,1.0,3.0,-999,-99.99,,,-99.99,,2013-07-13 09:43:00,
2013-07-13 05:50:00,62.0,-99.9,-100.00,ENE,67,0.0,2.0,-999,-99.99,,,-99.99,,2013-07-13 09:50:00,
2013-07-13 05:53:00,63.0,-99.9,-100.00,East,98,1.0,3.0,-999,-99.99,,,-99.99,,2013-07-13 09:53:00,
2013-07-13 06:01:00,63.0,-99.9,-100.00,East,98,1.0,3.0,-999,-99.99,,,-99.99,,2013-07-13 10:01:00,
2013-07-13 06:11:00,63.0,-99.9,-100.00,East,98,1.0,3.0,-999,-99.99,,,-99.99,,2013-07-13 10:11:00,
2013-07-13 06:22:00,62.0,-99.9,-100.00,ENE,67,0.0,2.0,-999,-99.99,,,-99.99,,2013-07-13 10:22:00,
2013-07-13 06:32:00,62.0,-99.9,-100.00,ENE,67,0.0,2.0,-999,-99.99,,,-99.99,,2013-07-13 10:32:00,
2013-07-13 06:43:00,62.0,-99.9,-100.00,ENE,67,0.0,2.0,-999,-99.99,,,-99.99,,2013-07-13 10:43:00,
2013-07-13 07:02:00,62.0,-99.9,-100.00,ENE,67,0.0,2.0,-999,-99.99,,,-99.99,,2013-07-13 11:02:00,
2013-07-13 07:11:00,62.0,-99.9,-100.00,ENE,67,0.0,2.0,-999,-99.99,,,-99.99,,2013-07-13 11:11:00,
2013-07-13 07:22:00,62.0,-99.9,-100.00,ENE,67,0.0,2.0,-999,-99.99,,,-99.99,,2013-07-13 11:22:00,
2013-07-13 07:32:00,62.0,-99.9,-100.00,NNW,341,0.0,1.0,-999,-99.99,,,-99.99,,2013-07-13 11:32:00,
2013-07-13 07:52:00,62.0,-99.9,-100.00,NNW,341,0.0,1.0,-999,-99.99,,,-99.99,,2013-07-13 11:52:00,
2013-07-13 08:02:00,62.0,-99.9,-100.00,NNW,341,0.0,1.0,-999,-99.99,,,-99.99,,2013-07-13 12:02:00,
2013-07-13 08:12:00,62.0,-99.9,-100.00,NNW,341,0.0,1.0,-999,-99.99,,,-99.99,,2013-07-13 12:12:00,
2013-07-13 08:32:00,65.0,-99.9,-100.00,SE,141,0.0,3.0,-999,-99.99,,,-99.99,,2013-07-13 12:32:00,
2013-07-13 08:43:00,65.0,-99.9,-100.00,SE,141,0.0,3.0,-999,-99.99,,,-99.99,,2013-07-13 12:43:00,
2013-07-13 09:01:00,65.0,-99.9,-100.00,SE,141,0.0,3.0,-999,-99.99,,,-99.99,,2013-07-13 13:01:00,
2013-07-13 09:12:00,65.0,-99.9,-100.00,SE,141,0.0,3.0,-999,-99.99,,,-99.99,,2013-07-13 13:12:00,
2013-07-13 09:32:00,69.0,-99.9,-100.00,NNE,30,1.0,4.0,-999,-99.99,,,-99.99,,2013-07-13 13:32:00,
2013-07-13 09:43:00,69.0,-99.9,-100.00,NNE,30,1.0,4.0,-999,-99.99,,,-99.99,,2013-07-13 13:43:00,
2013-07-13 09:53:00,69.0,-99.9,-100.00,NNE,30,1.0,4.0,-999,-99.99,,,-99.99,,2013-07-13 13:53:00,
2013-07-13 10:11:00,69.0,-99.9,-100.00,NNE,30,1.0,4.0,-999,-99.99,,,-99.99,,2013-07-13 14:11:00,
2013-07-13 10:22:00,69.0,-99.9,-100.00,NNE,30,1.0,4.0,-999,-99.99,,,-99.99,,2013-07-13 14:22:00,
2013-07-13 10:33:00,74.0,-99.9,-100.00,NE,39,2.0,7.0,-999,-99.99,,,-99.99,,2013-07-13 14:33:00,
2013-07-13 10:53:00,74.0,-99.9,-100.00,NE,39,2.0,7.0,-999,-99.99,,,-99.99,,2013-07-13 14:53:00,
2013-07-13 11:12:00,74.0,-99.9,-100.00,NE,39,2.0,7.0,-999,-99.99,,,-99.99,,2013-07-13 15:12:00,
2013-07-13 11:22:00,74.0,-99.9,-100.00,NE,39,2.0,7.0,-999,-99.99,,,-99.99,,2013-07-13 15:22:00,
2013-07-13 11:33:00,78.0,-99.9,-100.00,NW,324,1.0,6.0,-999,-99.99,,,-99.99,,2013-07-13 15:33:00,
2013-07-13 11:43:00,78.0,-99.9,-100.00,NW,324,1.0,6.0,-999,-99.99,,,-99.99,,2013-07-13 15:43:00,
2013-07-13 11:53:00,78.0,-99.9,-100.00,NW,324,1.0,6.0,-999,-99.99,,,-99.99,,2013-07-13 15:53:00,
2013-07-13 12:02:00,78.0,-99.9,-100.00,NW,324,1.0,6.0,-999,-99.99,,,-99.99,,2013-07-13 16:02:00,
2013-07-13 12:22:00,80.0,-99.9,-100.00,NNE,29,3.0,9.0,-999,-99.99,,,-99.99,,2013-07-13 16:22:00,
2013-07-13 12:33:00,80.0,-99.9,-100.00,NNE,29,3.0,9.0,-999,-99.99,,,-99.99,,2013-07-13 16:33:00,
2013-07-13 12:43:00,80.0,-99.9,-100.00,NNE,29,3.0,9.0,-999,-99.99,,,-99.99,,2013-07-13 16:43:00,
2013-07-13 13:02:00,80.0,-99.9,-100.00,NNE,29,3.0,9.0,-999,-99.99,,,-99.99,,2013-07-13 17:02:00,
2013-07-13 13:12:00,80.0,-99.9,-100.00,NNE,29,3.0,9.0,-999,-99.99,,,-99.99,,2013-07-13 17:12:00,
2013-07-13 13:22:00,81.0,-99.9,-100.00,ENE,72,1.0,11.0,-999,-99.99,,,-99.99,,2013-07-13 17:22:00,
2013-07-13 13:33:00,81.0,-99.9,-100.00,ENE,72,1.0,11.0,-999,-99.99,,,-99.99,,2013-07-13 17:33:00,
2013-07-13 13:43:00,81.0,-99.9,-100.00,ENE,72,1.0,11.0,-999,-99.99,,,-99.99,,2013-07-13 17:43:00,
2013-07-13 13:52:00,81.0,-99.9,-100.00,ENE,72,1.0,11.0,-999,-99.99,,,-99.99,,2013-07-13 17:52:00,
2013-07-13 14:02:00,81.0,-99.9,-100.00,ENE,72,1.0,11.0,-999,-99.99,,,-99.99,,2013-07-13 18:02:00,
2013-07-13 14:11:00,81.0,-99.9,-100.00,ENE,72,1.0,11.0,-999,-99.99,,,-99.99,,2013-07-13 18:11:00,
2013-07-13 14:22:00,81.0,-99.9,-100.00,ENE,72,1.0,11.0,-999,-99.99,,,-99.99,,2013-07-13 18:22:00,
2013-07-13 14:32:00,83.0,-99.9,-100.00,South,175,5.0,10.0,-999,-99.99,,,-99.99,,2013-07-13 18:32:00,
2013-07-13 14:44:00,83.0,-99.9,-100.00,South,175,5.0,10.0,-999,-99.99,,,-99.99,,2013-07-13 18:44:00,
2013-07-13 14:53:00,83.0,-99.9,-100.00,South,175,5.0,10.0,-999,-99.99,,,-99.99,,2013-07-13 18:53:00,
2013-07-13 15:02:00,83.0,-99.9,-100.00,South,175,5.0,10.0,-999,-99.99,,,-99.99,,2013-07-13 19:02:00,
2013-07-13 15:11:00,83.0,-99.9,-100.00,South,175,5.0,10.0,-999,-99.99,,,-99.99,,2013-07-13 19:11:00,
2013-07-13 15:32:00,85.0,-99.9,-100.00,South,171,4.0,9.0,-999,-99.99,,,-99.99,,2013-07-13 19:32:00,
2013-07-13 15:44:00,85.0,-99.9,-100.00,South,171,4.0,9.0,-999,-99.99,,,-99.99,,2013-07-13 19:44:00,
2013-07-13 15:52:00,76.0,-99.9,-100.00,North,2,7.0,11.0,-999,-99.99,,,-99.99,,2013-07-13 19:52:00,
2013-07-13 16:12:00,76.0,-99.9,-100.00,North,2,7.0,11.0,-999,-99.99,,,-99.99,,2013-07-13 20:12:00,
2013-07-13 16:22:00,76.0,-99.9,-100.00,North,2,7.0,11.0,-999,-99.99,,,-99.99,,2013-07-13 20:22:00,
2013-07-13 16:33:00,76.0,-99.9,-100.00,NNW,337,7.0,11.0,-999,-99.99,,,-99.99,,2013-07-13 20:33:00,
2013-07-13 16:43:00,76.0,-99.9,-100.00,NNW,337,7.0,11.0,-999,-99.99,,,-99.99,,2013-07-13 20:43:00,
2013-07-13 16:53:00,76.0,-99.9,-100.00,NNW,337,7.0,11.0,-999,-99.99,,,-99.99,,2013-07-13 20:53:00,
2013-07-13 17:02:00,76.0,-99.9,-100.00,NNW,337,7.0,11.0,-999,-99.99,,,-99.99,,2013-07-13 21:02:00,
2013-07-13 17:12:00,76.0,-99.9,-100.00,NNW,337,7.0,11.0,-999,-99.99,,,-99.99,,2013-07-13 21:12:00,
2013-07-13 17:22:00,76.0,-99.9,-100.00,NNW,337,7.0,11.0,-999,-99.99,,,-99.99,,2013-07-13 21:22:00,
2013-07-13 17:32:00,77.0,-99.9,-100.00,NW,310,5.0,12.0,-999,-99.99,,,-99.99,,2013-07-13 21:32:00,
2013-07-13 17:43:00,77.0,-99.9,-100.00,NW,310,5.0,12.0,-999,-99.99,,,-99.99,,2013-07-13 21:43:00,
2013-07-13 18:02:00,77.0,-99.9,-100.00,NW,310,5.0,12.0,-999,-99.99,,,-99.99,,2013-07-13 22:02:00,
2013-07-13 18:12:00,77.0,-99.9,-100.00,NW,310,5.0,12.0,-999,-99.99,,,-99.99,,2013-07-13 22:12:00,
2013-07-13 18:22:00,75.0,-99.9,-100.00,NNW,328,8.0,14.0,-999,-99.99,,,-99.99,,2013-07-13 22:22:00,
2013-07-13 18:32:00,75.0,-99.9,-100.00,NNW,328,8.0,14.0,-999,-99.99,,,-99.99,,2013-07-13 22:32:00,
2013-07-13 18:43:00,75.0,-99.9,-100.00,NNW,328,8.0,14.0,-999,-99.99,,,-99.99,,2013-07-13 22:43:00,
2013-07-13 18:53:00,75.0,-99.9,-100.00,NNW,328,8.0,14.0,-999,-99.99,,,-99.99,,2013-07-13 22:53:00,
2013-07-13 19:02:00,75.0,-99.9,-100.00,NNW,328,8.0,14.0,-999,-99.99,,,-99.99,,2013-07-13 23:02:00,
2013-07-13 19:11:00,75.0,-99.9,-100.00,NNW,328,8.0,14.0,-999,-99.99,,,-99.99,,2013-07-13 23:11:00,
2013-07-13 19:22:00,75.0,-99.9,-100.00,NNW,328,8.0,14.0,-999,-99.99,,,-99.99,,2013-07-13 23:22:00,
2013-07-13 19:33:00,77.0,-99.9,-100.00,North,349,4.0,11.0,-999,-99.99,,,-99.99,,2013-07-13 23:33:00,
2013-07-13 19:43:00,77.0,-99.9,-100.00,North,349,4.0,11.0,-999,-99.99,,,-99.99,,2013-07-13 23:43:00,
2013-07-13 20:02:00,77.0,-99.9,-100.00,North,349,4.0,11.0,-999,-99.99,,,-99.99,,2013-07-14 00:02:00,
2013-07-13 20:12:00,77.0,-99.9,-100.00,North,349,4.0,11.0,-999,-99.99,,,-99.99,,2013-07-14 00:12:00,
2013-07-13 20:22:00,86.0,-99.9,-100.00,WSW,257,1.0,6.0,-999,-99.99,,,-99.99,,2013-07-14 00:22:00,
2013-07-13 20:33:00,86.0,-99.9,-100.00,WSW,257,1.0,6.0,-999,-99.99,,,-99.99,,2013-07-14 00:33:00,
2013-07-13 20:42:00,86.0,-99.9,-100.00,WSW,257,1.0,6.0,-999,-99.99,,,-99.99,,2013-07-14 00:42:00,
2013-07-13 21:02:00,86.0,-99.9,-100.00,WSW,257,1.0,6.0,-999,-99.99,,,-99.99,,2013-07-14 01:02:00,
2013-07-13 21:11:00,86.0,-99.9,-100.00,WSW,257,1.0,6.0,-999,-99.99,,,-99.99,,2013-07-14 01:11:00,
2013-07-13 21:32:00,83.0,-99.9,-100.00,NNE,18,2.0,6.0,-999,-99.99,,,-99.99,,2013-07-14 01:32:00,
2013-07-13 21:43:00,83.0,-99.9,-100.00,NNE,18,2.0,6.0,-999,-99.99,,,-99.99,,2013-07-14 01:43:00,
2013-07-13 21:52:00,83.0,-99.9,-100.00,NNE,18,2.0,6.0,-999,-99.99,,,-99.99,,2013-07-14 01:52:00,
2013-07-13 22:02:00,83.0,-99.9,-100.00,NNE,18,2.0,6.0,-999,-99.99,,,-99.99,,2013-07-14 02:02:00,
2013-07-13 22:22:00,83.0,-99.9,-100.00,NNE,18,2.0,6.0,-999,-99.99,,,-99.99,,2013-07-14 02:22:00,
2013-07-13 22:43:00,75.0,-99.9,-100.00,North,-999,0.0,9.0,-999,-99.99,,,-99.99,,2013-07-14 02:43:00,
2013-07-13 23:02:00,75.0,-99.9,-100.00,North,-999,0.0,9.0,-999,-99.99,,,-99.99,,2013-07-14 03:02:00,
2013-07-13 23:12:00,75.0,-99.9,-100.00,North,-999,0.0,9.0,-999,-99.99,,,-99.99,,2013-07-14 03:12:00,
2013-07-13 23:22:00,73.0,-99.9,-100.00,SW,222,0.0,7.0,-999,-99.99,,,-99.99,,2013-07-14 03:22:00,
2013-07-13 23:32:00,73.0,-99.9,-100.00,SW,222,0.0,7.0,-999,-99.99,,,-99.99,,2013-07-14 03:32:00,
2013-07-13 23:43:00,73.0,-99.9,-100.00,SW,222,0.0,7.0,-999,-99.99,,,-99.99,,2013-07-14 03:43:00,
2013-07-13 23:53:00,73.0,-99.9,-100.00,SW,222,0.0,7.0,-999,-99.99,,,-99.99,,2013-07-14 03:53:00,